Starlink 2449

operational
NORAD ID: 48112 Int'l Des: 2021-027 Owner: SPXS Country: US Constellation: starlink
LEOCIRCULARSTARLINK_TYPE

Über Starlink 2449

Beschreibung wird geladen...

Live-Position

3D-Globus wird geladen...

Nächste Überflüge

Höhenverlauf

Altitude vs Time

uPlot chart will show altitude changes over time

Zweizeiliger Elementsatz

1 48112U 21027W 25298.73783569 -.00005268 00000-0 -33500-3 0 9999
2 48112 53.0547 62.6035 0001372 83.3733 276.7412 15.06402174252002
Epoch: 25. Okt. 2025 • Age: 14 hours

Aktueller Status

Höhe 549.0 km
Geschwindigkeit 7.59 km/s
Subsatellitenpunkt -5.55°S, 99.31°W
Startdatum 7. Apr. 2021
Alter 4.5 years
Typ internet

Technische Details

Klassifizierung Payload
Masse 260.00 kg
Trockenmasse 248.00 kg
Gesamtmasse 260.00 kg
Länge 0.20 m
Durchmesser 2.80 m
Spannweite 9.00 m
Form Box + pan
Hersteller SPXS
Bus-Typ Starlink
Phasenstatus In Orbit
Besitzer/Staat SPXS/US

Große Konstellationen

Loading constellations...